Location: Alta
(39.2070°N, 120.8111°W)
Time: 01:05:34
(UTC+00:00)

ITAMSAT 1 - Pass Details

Date: 04 April 2023
Orbit: 782 x 797 km, 98.8° (Epoch: 29 May)

Event Time Altitude Azimuth Distance (km) Brightness Sun altitude
Exits shadow 03:36:46 - 162° (SSE) 2,970 10.3 -13.6°
Reaches altitude 10° 03:38:19 10° 161° (SSE) 2,350 9.8 -13.9°
Maximum altitude 03:43:31 82° 75° (ENE) 807 7.6 -14.8°
Drops below altitude 10° 03:48:46 10° 348° (NNW) 2,373 10.6 -15.8°
Sets 03:51:06 0° 348° (NNW) 3,308 11.4 -16.2°
